"Pseudo-MPEC" for P21vlFs

Created 2022 Sep 4 14:22:49 UT using Find_Orb

Click here for an explanation of pseudo-MPECs

 
 Astrometry: 
     P21vlFs* C2022 07 23j:p5txsw`+Jp0ubPU4oSO*dwgG:qqW/;K%PE$IC/G4?BQpw??*nJF52
     P21vlFs  C2022 07 23Ilkp`BqL]C+4Bc7?'fp@b!j:@cAstrometryD5gm[Yredacted;AF52
     P21vlFs  C2022 07 23O`8!C[a1XJ#w,#CWg@w+?2rfm+*h[j'64wytL.jd#JAEEPd+HPx.F52
     P21vlFs  C2022 07 235Ai%HYmWmmYo?gOc+S3Lx2jNvuP'Nclick^o'uqai5r6(Q_!r5d#F52
     P21vlFs  C2022 07 23BRO@dsH;oRvwk8Frg=YVRQl5\,6.AUecan]%h_t77ph(b4UPQh,]F52
     P21vlFs  C2022 07 23@SrV9ceZ*w%y4^AsYXdOFGlZBej(Hd5AuN*`bD_[CM?dRve(v2t0F52
     P21vlFs KC2022 07 24hpu2xxw4?r#2%%0`TlYrl2I1nEwBVheree8+R6)O$!A%g^wx+dXXH21
     P21vlFs KC2022 07 24WD'h8fZ\+rB]b%fA(AabF:ZDEEVWV^xledL!forJxwa;#N\_oxF2H21
     P21vlFs KC2022 07 24:FLNkKM!))A(n`FuJs924pexplanation`JU/HVAGEGsrIV%w^M8H21

Station data:
(F52) Pan-STARRS 2, Haleakala  (N20.707382 W156.255910)  US/Hawaii.
   Observers J. Bulger, T. Dukes, T. Lowe, A. Schultz, M. Willman. Measurers
   K. Chambers, S. Chastel, T. de Boer, L. Denneau, J. Fairlamb, H.
   Flewelling, M. Huber, C.-C. Lin, E. Magnier, Y. Ramanjooloo, R. Wainscoat,
   R. Weryk. 1.8-m Ritchey-Chrétien + CCD.
(H21) Astronomical Research Observatory, Westfield  (N39.483054 W87.968270)
   US/Illinois.  Observer R. Holmes. Measurers S. Foglia, L. Buzzi, T.
   Linder, R. Holmes. 0.76-m f/3.0 astrograph + CCD0.81-m f/4.0 astrograph +
   CCD0.61-m f/4.5 astrograph + CCD0.40-m f/5.32 astrograph + CCD.

Orbital elements:  P21vlFs
   Perihelion 2022 Oct 31.09191 +/- 56.6 TT =  2:12:21 (JD 2459883.59191)
Epoch 2022 Jul 24.0 TT = JDT 2459784.5   Earth MOID: 0.4251   Ma: 0.0412
M 334.54389401 +/- 12               (J2000 ecliptic)          AutoNEOCP
n   0.25689387 +/- 0.0759           Peri.  127.48948 +/- 51
a   2.45075679 +/- 0.483            Node   244.46887 +/- 16
e   0.4369007 +/- 0.118             Incl.   12.36397 +/- 2.4
P   3.84                   H 20.7   G  0.15   U 11.0  SR
q 1.38001930 +/- 0.208    Q 3.52149427 +/- 1.33
From 9 observations 2022 July 23-24 (21.2 hr); mean residual 0".13
Residuals in arcseconds: 
220723 F52  .11+  .02+    220723 F52  .02+  .10-    220724 H21  .02-  .25+    
220723 F52  .04+  .30-    220723 F52  .11-  .12+    220724 H21  .00   .06-    
220723 F52  .04-  .07+    220723 F52  .05-  .22+    220724 H21  .04+  .24-    

Ephemerides (geocentric):
Date (UTC) HH   RA             Dec           delta  r     elong  mag " sig PA
---- --------  ------------   ------------  ------ ------ -----  --- --------
2022 09 04 14  20 25 32.105   +15 24 29.47  .57391 1.4816 137.2 21.6 186'  33
2022 09 04 15  20 25 31.670   +15 24 21.46  .57389 1.4815 137.1 21.6 186'  33
2022 09 04 16  20 25 31.239   +15 24 13.42  .57387 1.4813 137.1 21.6 187'  33
2022 09 04 17  20 25 30.814   +15 24 05.33  .57385 1.4812 137.1 21.6 187'  33
2022 09 04 18  20 25 30.394   +15 23 57.20  .57382 1.4810 137.1 21.6 187'  33
2022 09 04 19  20 25 29.979   +15 23 49.03  .57380 1.4809 137.0 21.6 188'  33
2022 09 04 20  20 25 29.569   +15 23 40.83  .57378 1.4808 137.0 21.6 188'  33
2022 09 04 21  20 25 29.164   +15 23 32.58  .57376 1.4806 137.0 21.6 188'  33
2022 09 04 22  20 25 28.765   +15 23 24.28  .57374 1.4805 137.0 21.6 189'  33
2022 09 04 23  20 25 28.371   +15 23 15.95  .57372 1.4803 136.9 21.6 189'  33
2022 09 05 00  20 25 27.981   +15 23 07.58  .57370 1.4802 136.9 21.6 189'  33
2022 09 05 01  20 25 27.597   +15 22 59.17  .57368 1.4801 136.9 21.6 190'  33
2022 09 05 02  20 25 27.218   +15 22 50.71  .57366 1.4799 136.9 21.6 190'  33
2022 09 05 03  20 25 26.845   +15 22 42.22  .57364 1.4798 136.8 21.6 191'  33
2022 09 05 04  20 25 26.476   +15 22 33.69  .57362 1.4796 136.8 21.6 191'  33
2022 09 05 05  20 25 26.113   +15 22 25.11  .57360 1.4795 136.8 21.6 191'  33
2022 09 05 06  20 25 25.755   +15 22 16.50  .57358 1.4794 136.8 21.6 192'  33
2022 09 05 07  20 25 25.402   +15 22 07.84  .57356 1.4792 136.7 21.6 192'  33
2022 09 05 08  20 25 25.054   +15 21 59.15  .57354 1.4791 136.7 21.6 192'  33
2022 09 05 09  20 25 24.712   +15 21 50.41  .57353 1.4789 136.7 21.6 193'  33
2022 09 05 10  20 25 24.374   +15 21 41.63  .57351 1.4788 136.7 21.6 193'  33
2022 09 05 11  20 25 24.042   +15 21 32.82  .57349 1.4787 136.7 21.6 193'  33
2022 09 05 12  20 25 23.715   +15 21 23.96  .57347 1.4785 136.6 21.6 194'  33
2022 09 05 13  20 25 23.394   +15 21 15.07  .57345 1.4784 136.6 21.6 194'  33
2022 09 05 14  20 25 23.077   +15 21 06.13  .57343 1.4783 136.6 21.6 195'  33
2022 09 05 15  20 25 22.766   +15 20 57.15  .57342 1.4781 136.6 21.6 195'  33
2022 09 05 16  20 25 22.460   +15 20 48.14  .57340 1.4780 136.5 21.6 195'  33
2022 09 05 17  20 25 22.160   +15 20 39.08  .57338 1.4778 136.5 21.6 196'  33
2022 09 05 18  20 25 21.864   +15 20 29.99  .57336 1.4777 136.5 21.6 196'  32
2022 09 05 19  20 25 21.574   +15 20 20.85  .57335 1.4776 136.5 21.6 196'  32
2022 09 05 20  20 25 21.289   +15 20 11.68  .57333 1.4774 136.4 21.6 197'  32
2022 09 05 21  20 25 21.009   +15 20 02.47  .57331 1.4773 136.4 21.6 197'  32
2022 09 05 22  20 25 20.735   +15 19 53.21  .57330 1.4771 136.4 21.6 198'  32
2022 09 05 23  20 25 20.466   +15 19 43.92  .57328 1.4770 136.4 21.6 198'  32
2022 09 06 00  20 25 20.202   +15 19 34.59  .57326 1.4769 136.3 21.6 198'  32
2022 09 06 01  20 25 19.943   +15 19 25.22  .57325 1.4767 136.3 21.6 199'  32
2022 09 06 02  20 25 19.690   +15 19 15.81  .57323 1.4766 136.3 21.6 199'  32
2022 09 06 03  20 25 19.441   +15 19 06.36  .57321 1.4765 136.3 21.6 199'  32
2022 09 06 04  20 25 19.199   +15 18 56.87  .57320 1.4763 136.2 21.6 200'  32
2022 09 06 05  20 25 18.961   +15 18 47.34  .57318 1.4762 136.2 21.6 200'  32
2022 09 06 06  20 25 18.729   +15 18 37.78  .57317 1.4760 136.2 21.6 201'  32
2022 09 06 07  20 25 18.502   +15 18 28.17  .57315 1.4759 136.2 21.6 201'  32
2022 09 06 08  20 25 18.280   +15 18 18.53  .57314 1.4758 136.1 21.6 201'  32
2022 09 06 09  20 25 18.064   +15 18 08.85  .57312 1.4756 136.1 21.6 202'  32
2022 09 06 10  20 25 17.853   +15 17 59.12  .57311 1.4755 136.1 21.6 202'  32
2022 09 06 11  20 25 17.647   +15 17 49.36  .57309 1.4754 136.1 21.6 202'  32
2022 09 06 12  20 25 17.447   +15 17 39.56  .57308 1.4752 136.1 21.6 203'  32
2022 09 06 13  20 25 17.251   +15 17 29.73  .57306 1.4751 136.0 21.6 203'  32